Simultaneous Nadir Overpasses (SNOs) Predictions

Prediction of SNOs between GOES-16 and AQUA Satellite Orbit:

Table of predicted SNOs for the next 14.0 days since TLE Epoch: 7/13/2018
Index Date Time (GOES-16) GOES-16 Lat,Lon AQUA Lat,Lon Distance(km) Time Diff (sec)
1 07/15/2018 18:29:42 0.03, -75.21 0.48, -73.19 230.89 80
2 07/16/2018 06:50:58 -0.03, -75.21 0.66, -78.34 355.81 80
3 07/18/2018 06:36:11 -0.03, -75.24 0.02, -75.40 18.92 80
4 07/20/2018 06:24:04 -0.03, -75.27 -0.63, -72.47 318.82 80
5 07/20/2018 18:45:29 0.04, -75.28 -0.47, -77.66 270.67 80
6 07/22/2018 18:36:02 0.04, -75.32 0.18, -74.73 67.70 80
7 07/24/2018 18:23:55 0.05, -75.37 0.83, -71.80 406.48 80
8 07/25/2018 06:45:12 -0.05, -75.38 0.27, -76.96 179.68 80
9 07/27/2018 06:30:25 -0.06, -75.42 -0.38, -74.02 159.76 80
10 07/27/2018 18:51:49 0.06, -75.44 -0.76, -79.21 429.21 80




NCC Satellite Simultaneous Nadir Overpasses (SNOs) Prediction Service
